GW6646 Weather Reports


Display with metric or nautical units.
time (UTC)temp
F
wind
direction
speed
MPH
gust
MPH
rain 1hr
in
rain 24hr
in
rain mn
in
humidity
%
barometer
mb
20260509123640 59 55 1.0 3.0 0.00 0.00 0.00 54
20260509123137 59 61 2.0 2.0 0.00 0.00 0.00 55
20260509122632 59 62 2.0 4.0 0.00 0.00 0.00 56
20260509122130 59 74 2.0 3.0 0.00 0.00 0.00 56
20260509121626 60 36 3.0 7.0 0.00 0.00 0.00 55
20260509121124 60 28 4.0 6.0 0.00 0.00 0.00 52
20260509120622 60 21 2.0 6.0 0.00 0.00 0.00 51
20260509120120 61 64 1.0 3.0 0.00 0.00 0.00 50
20260509115617 61 9 3.0 6.0 0.00 0.00 0.00 49
20260509115114 61 41 2.0 8.0 0.00 0.00 0.00 48
20260509114612 61 60 6.0 8.0 0.00 0.00 0.00 48
20260509114111 62 355 4.0 6.0 0.00 0.00 0.00 48
20260509113609 62 4 6.0 8.0 0.00 0.00 0.00 47
20260509113106 62 5 2.0 3.0 0.00 0.00 0.00 48
20260509112603 62 69 2.0 4.0 0.00 0.00 0.00 48
20260509112100 62 43 3.0 6.0 0.00 0.00 0.00 48
20260509111557 62 65 3.0 4.0 0.00 0.00 0.00 47
20260509111054 62 69 2.0 6.0 0.00 0.00 0.00 47
20260509110551 62 57 3.0 10.0 0.00 0.00 0.00 47
20260509110048 62 73 1.0 4.0 0.00 0.00 0.00 49
20260509105546 63 32 4.0 6.0 0.00 0.00 0.00 49
20260509105043 63 15 3.0 4.0 0.00 0.00 0.00 48
20260509104540 64 58 2.0 6.0 0.00 0.00 0.00 45
20260509104037 64 48 2.0 8.0 0.00 0.00 0.00 45
20260509103535 64 27 4.0 6.0 0.00 0.00 0.00 46
20260509103033 64 59 5.0 7.0 0.00 0.00 0.00 45
20260509102530 64 89 2.0 4.0 0.00 0.00 0.00 44
20260509102026 64 347 6.0 8.0 0.00 0.00 0.00 45
20260509101523 64 67 5.0 8.0 0.00 0.00 0.00 44
20260509101020 64 8 6.0 7.0 0.00 0.00 0.00 45
20260509100517 65 34 5.0 9.0 0.00 0.00 0.00 44
20260509100014 65 9 6.0 9.0 0.00 0.00 0.00 43
20260509095511 65 79 5.0 7.0 0.00 0.00 0.00 43
20260509095008 65 42 3.0 9.0 0.00 0.00 0.00 42
20260509094504 65 77 2.0 9.0 0.00 0.00 0.00 42
20260509094002 65 56 6.0 9.0 0.00 0.00 0.00 42
20260509093500 66 56 2.0 6.0 0.00 0.00 0.00 42
20260509092957 66 82 5.0 8.0 0.00 0.00 0.00 41
20260509092455 66 94 1.0 7.0 0.00 0.00 0.00 41
20260509091953 67 40 3.0 6.0 0.00 0.00 0.00 40
20260509091450 67 85 3.0 4.0 0.00 0.00 0.00 40
20260509090947 67 54 3.0 7.0 0.00 0.00 0.00 38
20260509090444 67 60 4.0 8.0 0.00 0.00 0.00 38
20260509085942 67 55 3.0 10.0 0.00 0.00 0.00 37
20260509085438 67 93 5.0 7.0 0.00 0.00 0.00 38
20260509084935 67 39 4.0 7.0 0.00 0.00 0.00 38
20260509084431 67 36 5.0 8.0 0.00 0.00 0.00 36
20260509083929 68 79 2.0 11.0 0.00 0.00 0.00 37
20260509083426 68 34 6.0 16.0 0.00 0.00 0.00 36
20260509082923 68 36 6.0 10.0 0.00 0.00 0.00 36
20260509082420 69 43 9.0 15.0 0.00 0.00 0.00 36
20260509081917 68 90 8.0 13.0 0.00 0.00 0.00 36
20260509081414 69 74 7.0 14.0 0.00 0.00 0.00 34
20260509080911 69 52 9.0 17.0 0.00 0.00 0.00 33
20260509080409 69 17 9.0 13.0 0.00 0.00 0.00 34
20260509075908 69 41 9.0 13.0 0.00 0.00 0.00 35
20260509075404 69 24 7.0 10.0 0.00 0.00 0.00 35
20260509074902 69 48 6.0 11.0 0.00 0.00 0.00 34
20260509074359 69 59 9.0 14.0 0.00 0.00 0.00 33
20260509073855 70 68 6.0 13.0 0.00 0.00 0.00 33
20260509073352 70 93 6.0 14.0 0.00 0.00 0.00 34
20260509072848 70 183 5.0 11.0 0.00 0.00 0.00 33
20260509072345 70 29 9.0 11.0 0.00 0.00 0.00 32
20260509071841 70 1 9.0 13.0 0.00 0.00 0.00 32
20260509071338 70 46 10.0 16.0 0.00 0.00 0.00 32
20260509070836 70 18 9.0 22.0 0.00 0.00 0.00 30
20260509070332 70 68 8.0 16.0 0.00 0.00 0.00 30
20260509065829 70 85 7.0 15.0 0.00 0.00 0.00 30
20260509065325 70 61 11.0 18.0 0.00 0.00 0.00 31
20260509064821 70 70 6.0 18.0 0.00 0.00 0.00 29
20260509064319 71 81 9.0 15.0 0.00 0.00 0.00 29
20260509063816 71 91 8.0 16.0 0.00 0.00 0.00 29
20260509063312 71 27 10.0 14.0 0.00 0.00 0.00 29
20260509062810 71 94 7.0 14.0 0.00 0.00 0.00 29
20260509062307 70 30 14.0 23.0 0.00 0.00 0.00 28
20260509061804 70 79 8.0 13.0 0.00 0.00 0.00 31
20260509061302 70 133 9.0 18.0 0.00 0.00 0.00 30
20260509060758 70 57 10.0 23.0 0.00 0.00 0.00 30
20260509060255 70 78 13.0 17.0 0.00 0.00 0.00 29
20260509055751 70 133 12.0 16.0 0.00 0.00 0.00 30
20260509055247 70 50 8.0 16.0 0.00 0.00 0.00 31
20260509054743 71 50 6.0 11.0 0.00 0.00 0.00 32
20260509054240 71 70 14.0 21.0 0.00 0.00 0.00 30
20260509053739 70 70 7.0 16.0 0.00 0.00 0.00 31
20260509053235 70 81 9.0 18.0 0.00 0.00 0.00 33
20260509052733 70 25 14.0 17.0 0.00 0.00 0.00 33
20260509052231 70 69 10.0 17.0 0.00 0.00 0.00 33
20260509051728 71 354 12.0 15.0 0.00 0.00 0.00 32
20260509051226 70 63 6.0 15.0 0.00 0.00 0.00 33
20260509050722 70 18 8.0 17.0 0.00 0.00 0.00 35
20260509050219 70 45 9.0 13.0 0.00 0.00 0.00 35
20260509045716 69 5 9.0 17.0 0.00 0.00 0.00 35
20260509045213 69 54 13.0 22.0 0.00 0.00 0.00 36
20260509044710 69 105 5.0 19.0 0.00 0.00 0.00 36
20260509044208 69 40 12.0 22.0 0.00 0.00 0.00 36
20260509043704 70 40 9.0 21.0 0.00 0.00 0.00 35
20260509043200 69 3 6.0 17.0 0.00 0.00 0.00 36
20260509042656 69 37 9.0 14.0 0.00 0.00 0.00 35
20260509042153 69 61 9.0 22.0 0.00 0.00 0.00 35
20260509041649 69 20 12.0 27.0 0.00 0.00 0.00 37
20260509041147 69 79 11.0 22.0 0.00 0.00 0.00 36
20260509040645 70 90 12.0 16.0 0.00 0.00 0.00 35
20260509040142 69 11 8.0 14.0 0.00 0.00 0.00 38
20260509035639 68 19 11.0 26.0 0.00 0.00 0.00 37
20260509035135 69 52 10.0 19.0 0.00 0.00 0.00 37
20260509034633 69 358 9.0 15.0 0.00 0.00 0.00 38
20260509034130 69 128 12.0 17.0 0.00 0.00 0.00 38
20260509033627 68 67 12.0 19.0 0.00 0.00 0.00 39
20260509033124 68 79 7.0 21.0 0.00 0.00 0.00 39
20260509032621 69 25 11.0 23.0 0.00 0.00 0.00 39
20260509032118 68 34 7.0 17.0 0.00 0.00 0.00 41
20260509031616 67 60 9.0 21.0 0.00 0.00 0.00 39
20260509031113 68 29 11.0 23.0 0.00 0.00 0.00 40
20260509030611 68 125 9.0 19.0 0.00 0.00 0.00 41
20260509030108 68 324 7.0 14.0 0.00 0.00 0.00 42
20260509025604 68 236 6.0 19.0 0.00 0.00 0.00 40
20260509025059 68 126 6.0 19.0 0.00 0.00 0.00 42
20260509024555 68 20 10.0 21.0 0.00 0.00 0.00 41
20260509024052 67 29 11.0 25.0 0.00 0.00 0.00 41
20260509023550 67 313 11.0 19.0 0.00 0.00 0.00 40
20260509023046 67 45 10.0 18.0 0.00 0.00 0.00 41
20260509022542 67 44 11.0 17.0 0.00 0.00 0.00 41
20260509022041 67 66 9.0 17.0 0.00 0.00 0.00 41
20260509021537 67 103 12.0 21.0 0.00 0.00 0.00 42
20260509021034 67 52 10.0 15.0 0.00 0.00 0.00 42
20260509020533 66 91 4.0 14.0 0.00 0.00 0.00 43
20260509020029 67 64 11.0 14.0 0.00 0.00 0.00 46
20260509015528 66 17 6.0 17.0 0.00 0.00 0.00 45
20260509015025 66 344 9.0 15.0 0.00 0.00 0.00 44
20260509014522 66 108 7.0 16.0 0.00 0.00 0.00 45
20260509014018 65 22 14.0 18.0 0.00 0.00 0.00 46
20260509013515 65 34 11.0 15.0 0.00 0.00 0.00 46
20260509013011 65 5 14.0 19.0 0.00 0.00 0.00 47
20260509012508 65 42 5.0 17.0 0.00 0.00 0.00 47
20260509012004 64 33 9.0 16.0 0.00 0.00 0.00 48
20260509011502 65 26 14.0 16.0 0.00 0.00 0.00 47
20260509010959 65 47 16.0 25.0 0.00 0.00 0.00 46
20260509010457 64 40 7.0 14.0 0.00 0.00 0.00 50
20260509005953 64 27 10.0 14.0 0.00 0.00 0.00 49
20260509005452 63 53 9.0 14.0 0.00 0.00 0.00 49
20260509004951 63 66 4.0 8.0 0.00 0.00 0.00 50
20260509004449 63 27 14.0 15.0 0.00 0.00 0.00 50
20260509003946 63 94 3.0 10.0 0.00 0.00 0.00 51
20260509003444 62 3 8.0 13.0 0.00 0.00 0.00 51
20260509002940 62 40 8.0 13.0 0.00 0.00 0.00 52
20260509002439 62 0 5.0 13.0 0.00 0.00 0.00 53
20260509001935 63 58 7.0 14.0 0.00 0.00 0.00 51
20260509001432 63 30 4.0 9.0 0.00 0.00 0.00 51
20260509000929 63 36 9.0 11.0 0.00 0.00 0.00 50
20260509000427 62 106 5.0 16.0 0.00 0.00 0.00 50
20260508235922 62 73 9.0 17.0 0.00 0.00 0.00 50
20260508235420 61 28 13.0 18.0 0.00 0.00 0.00 51
20260508234917 61 37 10.0 21.0 0.00 0.00 0.00 51
20260508234414 62 78 7.0 17.0 0.00 0.00 0.00 52
20260508233911 62 98 7.0 14.0 0.00 0.00 0.00 51
20260508233411 61 24 11.0 15.0 0.00 0.00 0.00 51
20260508232907 61 16 11.0 17.0 0.00 0.00 0.00 52
20260508232404 61 41 8.0 15.0 0.00 0.00 0.00 53
20260508231902 61 48 4.0 11.0 0.00 0.00 0.00 54
20260508231359 61 108 10.0 25.0 0.00 0.00 0.00 53
20260508230855 61 38 9.0 19.0 0.00 0.00 0.00 53
20260508230351 60 340 8.0 14.0 0.00 0.00 0.00 55
20260508225849 60 1 7.0 10.0 0.00 0.00 0.00 54
20260508225345 60 58 7.0 13.0 0.00 0.00 0.00 55
20260508224843 60 16 6.0 18.0 0.00 0.00 0.00 55
20260508224340 60 28 4.0 15.0 0.00 0.00 0.00 56
20260508223838 60 28 5.0 11.0 0.00 0.00 0.00 56
20260508223335 59 34 6.0 14.0 0.00 0.00 0.00 56
20260508222833 59 90 11.0 15.0 0.00 0.00 0.00 56
20260508222330 59 66 7.0 16.0 0.00 0.00 0.00 58
20260508221826 59 9 6.0 13.0 0.00 0.00 0.00 57
20260508221322 59 24 16.0 19.0 0.00 0.00 0.00 57
20260508220819 59 6 13.0 18.0 0.00 0.00 0.00 57
20260508220315 59 21 4.0 9.0 0.00 0.00 0.00 57
20260508215812 59 315 12.0 19.0 0.00 0.00 0.00 56
20260508215308 59 77 11.0 16.0 0.00 0.00 0.00 56
20260508214805 59 47 9.0 16.0 0.00 0.00 0.00 56
20260508214302 59 32 13.0 18.0 0.00 0.00 0.00 56
20260508213759 59 14 9.0 17.0 0.00 0.00 0.00 56
20260508213256 58 10 12.0 17.0 0.00 0.00 0.00 56
20260508212752 58 39 7.0 14.0 0.00 0.00 0.00 57
20260508212248 58 33 10.0 14.0 0.00 0.00 0.00 58
20260508211744 58 42 13.0 17.0 0.00 0.00 0.00 57
20260508211240 57 48 7.0 11.0 0.00 0.00 0.00 58
20260508210738 57 32 4.0 11.0 0.00 0.00 0.00 59
20260508210235 57 91 3.0 11.0 0.00 0.00 0.00 59
20260508205731 57 59 9.0 18.0 0.00 0.00 0.00 58
20260508205228 57 25 6.0 15.0 0.00 0.00 0.00 57
20260508204724 58 39 4.0 14.0 0.00 0.00 0.00 58
20260508204221 58 109 9.0 14.0 0.00 0.00 0.00 57
20260508203717 58 40 6.0 17.0 0.00 0.00 0.00 57
20260508203213 58 21 8.0 15.0 0.00 0.00 0.00 58
20260508202709 58 6 7.0 14.0 0.00 0.00 0.00 57
20260508202207 58 52 6.0 15.0 0.00 0.00 0.00 57
20260508201703 58 23 8.0 15.0 0.00 0.00 0.00 57
20260508201200 58 11 10.0 14.0 0.00 0.00 0.00 56
20260508200657 58 344 7.0 14.0 0.00 0.00 0.00 55
20260508200153 58 17 10.0 14.0 0.00 0.00 0.00 54
20260508195650 58 12 12.0 18.0 0.00 0.00 0.00 54
20260508195146 58 29 4.0 13.0 0.00 0.00 0.00 54
20260508194643 58 6 15.0 22.0 0.00 0.00 0.00 53
20260508194140 58 47 5.0 15.0 0.00 0.00 0.00 53
20260508193636 58 102 6.0 15.0 0.00 0.00 0.00 53
20260508193133 58 5 7.0 21.0 0.00 0.00 0.00 53
20260508192630 58 52 7.0 22.0 0.00 0.00 0.00 53
20260508192128 58 0 10.0 15.0 0.00 0.00 0.00 53
20260508191624 58 343 10.0 17.0 0.00 0.00 0.00 54
20260508191121 59 38 12.0 21.0 0.00 0.00 0.00 53
20260508190619 59 8 15.0 23.0 0.00 0.00 0.00 52
20260508190114 59 41 12.0 17.0 0.00 0.00 0.00 51
20260508185611 59 31 8.0 15.0 0.00 0.00 0.00 50
20260508185109 59 39 8.0 15.0 0.00 0.00 0.00 49
20260508184606 59 37 10.0 15.0 0.00 0.00 0.00 49
20260508184103 59 0 11.0 18.0 0.00 0.00 0.00 49
20260508183559 59 39 4.0 13.0 0.00 0.00 0.00 49
20260508183055 59 64 7.0 9.0 0.00 0.00 0.00 51
20260508182552 59 8 8.0 10.0 0.00 0.00 0.00 51
20260508182049 59 0 5.0 9.0 0.00 0.00 0.00 51
20260508181543 59 23 6.0 15.0 0.00 0.00 0.00 51
20260508181042 59 23 5.0 9.0 0.00 0.00 0.00 51
20260508180538 59 11 6.0 10.0 0.00 0.00 0.00 52
20260508180034 58 7 9.0 10.0 0.00 0.00 0.00 52
20260508175531 58 351 6.0 10.0 0.00 0.00 0.00 54
20260508175028 58 76 5.0 9.0 0.00 0.00 0.00 54
20260508174526 58 3 5.0 10.0 0.00 0.00 0.00 54
20260508174023 58 18 3.0 11.0 0.00 0.00 0.00 54
20260508173520 58 66 5.0 6.0 0.00 0.00 0.00 54
20260508173015 58 43 6.0 7.0 0.00 0.00 0.00 55
20260508172513 58 73 1.0 6.0 0.00 0.00 0.00 55
20260508172009 58 86 4.0 7.0 0.00 0.00 0.00 55
20260508171506 58 17 4.0 7.0 0.00 0.00 0.00 55
20260508171002 58 7 6.0 9.0 0.00 0.00 0.00 55
20260508170500 58 35 3.0 6.0 0.00 0.00 0.00 55
20260508165956 58 83 1.0 4.0 0.00 0.00 0.00 55
20260508165455 58 66 4.0 6.0 0.00 0.00 0.00 55
20260508164950 58 71 4.0 6.0 0.00 0.00 0.00 55
20260508164447 58 76 3.0 4.0 0.00 0.00 0.00 56
20260508163944 58 9 4.0 8.0 0.00 0.00 0.00 56
20260508163442 58 77 3.0 7.0 0.00 0.00 0.00 55
20260508162937 58 18 4.0 7.0 0.00 0.00 0.00 56
20260508162435 58 5 5.0 8.0 0.00 0.00 0.00 56
20260508161932 58 342 4.0 8.0 0.00 0.00 0.00 56
20260508161429 58 353 6.0 8.0 0.00 0.00 0.00 56
20260508160926 58 6 6.0 9.0 0.00 0.00 0.00 57
20260508160425 58 5 6.0 9.0 0.00 0.00 0.00 58
20260508155921 58 95 5.0 8.0 0.00 0.00 0.00 58
20260508155418 57 357 4.0 7.0 0.00 0.00 0.00 61
20260508154915 57 105 2.0 4.0 0.00 0.00 0.00 63
20260508154413 57 94 3.0 4.0 0.00 0.00 0.00 64
20260508153909 57 66 3.0 4.0 0.00 0.00 0.00 66
20260508153406 57 77 1.0 2.0 0.00 0.00 0.00 69
20260508152902 57 96 0.0 1.0 0.00 0.00 0.00 70
20260508152359 57 57 2.0 2.0 0.00 0.00 0.00 69
20260508151855 57 107 0.0 0.0 0.00 0.00 0.00 68
20260508151352 58 106 0.0 1.0 0.00 0.00 0.00 67
20260508150848 58 105 1.0 1.0 0.00 0.00 0.00 67
20260508150345 58 96 1.0 2.0 0.00 0.00 0.00 66
20260508145841 58 106 0.0 2.0 0.00 0.00 0.00 65
20260508145338 58 85 2.0 3.0 0.00 0.00 0.00 65
20260508144834 59 102 1.0 1.0 0.00 0.00 0.00 64
20260508144332 59 68 1.0 1.0 0.00 0.00 0.00 63
20260508143830 60 109 0.0 2.0 0.00 0.00 0.00 62
20260508143327 60 91 1.0 3.0 0.00 0.00 0.00 62
20260508142824 60 94 1.0 2.0 0.00 0.00 0.00 61
20260508142320 60 31 3.0 6.0 0.00 0.00 0.00 60
20260508141817 60 26 2.0 6.0 0.00 0.00 0.00 60
20260508141314 60 91 2.0 8.0 0.00 0.00 0.00 60
20260508140811 61 102 4.0 6.0 0.00 0.00 0.00 60
20260508140308 61 19 7.0 8.0 0.00 0.00 0.00 60
20260508135804 61 74 4.0 6.0 0.00 0.00 0.00 60
20260508135300 61 86 3.0 6.0 0.00 0.00 0.00 60
20260508134755 61 105 2.0 4.0 0.00 0.00 0.00 60
20260508134253 61 91 4.0 6.0 0.00 0.00 0.00 59
20260508133750 61 61 5.0 8.0 0.00 0.00 0.00 59
20260508133248 62 67 5.0 8.0 0.00 0.00 0.00 60
20260508132745 62 65 3.0 6.0 0.00 0.00 0.00 61
20260508132243 62 18 2.0 4.0 0.00 0.00 0.00 61
20260508131738 62 49 4.0 9.0 0.00 0.00 0.00 60
20260508131234 62 96 4.0 7.0 0.00 0.00 0.00 61
20260508130731 62 34 4.0 10.0 0.00 0.00 0.00 61
20260508130229 62 53 3.0 8.0 0.00 0.00 0.00 61
20260508125724 62 47 6.0 10.0 0.00 0.00 0.00 61
20260508125220 62 144 3.0 14.0 0.00 0.00 0.00 62
20260508124719 62 72 8.0 11.0 0.00 0.00 0.00 62
20260508124216 62 58 10.0 15.0 0.00 0.00 0.00 62